Satellite: DO-64
Catalog number: 32789
Epoch time:      12075.65916429
Element set:     255
Inclination:      097.8218 deg
RA of node:       141.0650 deg
Eccentricity:    0.0014753
Arg of perigee:   008.8342 deg
Mean anomaly:     351.3157 deg
Mean motion:   14.85141211 rev/day
Decay rate:      3.577e-05 rev/day^2
Epoch rev:           20999
Checksum:              318

Satellite: CO-66
Catalog number: 32791
Epoch time:      12075.69417605
Element set:     243
Inclination:      097.8117 deg
RA of node:       138.8900 deg
Eccentricity:    0.0015698
Arg of perigee:   011.4899 deg
Mean anomaly:     348.6613 deg
Mean motion:   14.83110748 rev/day
Decay rate:      1.866e-05 rev/day^2
Epoch rev:           20988
Checksum:              344

Satellite: RS-30
Catalog number: 32953
Epoch time:      12075.84304605
Element set:     610
Inclination:      082.5072 deg
RA of node:       353.1855 deg
Eccentricity:    0.0018848
Arg of perigee:   147.9003 deg
Mean anomaly:     212.3230 deg
Mean motion:   12.43021499 rev/day
Decay rate:        1.0e-07 rev/day^2
Epoch rev:           17296
Checksum:              269

Satellite: TACSAT-3
Catalog number: 35001
Epoch time:      12075.76403871
Element set:     905
Inclination:      040.4464 deg
RA of node:       290.6824 deg
Eccentricity:    0.0011898
Arg of perigee:   299.1689 deg
Mean anomaly:     060.8034 deg
Mean motion:   15.81312926 rev/day
Decay rate:    1.79862e-03 rev/day^2
Epoch rev:           15965
Checksum:              326

Satellite: PHARMSAT
Catalog number: 35002
Epoch time:      12075.84340584
Element set:     827
Inclination:      040.4654 deg
RA of node:       297.3866 deg
Eccentricity:    0.0000843
Arg of perigee:   186.3767 deg
Mean anomaly:     173.7079 deg
Mean motion:   15.68339454 rev/day
Decay rate:     6.6452e-04 rev/day^2
Epoch rev:           15959
Checksum:              336

Satellite: METEOR-M
Catalog number: 35865
Epoch time:      12075.69766118
Element set:     233
Inclination:      098.6668 deg
RA of node:       131.7288 deg
Eccentricity:    0.0002156
Arg of perigee:   344.2274 deg
Mean anomaly:     015.8800 deg
Mean motion:   14.21857499 rev/day
Decay rate:        4.0e-08 rev/day^2
Epoch rev:           12931
Checksum:              311

Satellite: RS-38
Catalog number: 35869
Epoch time:      12075.80269290
Element set:     241
Inclination:      098.6630 deg
RA of node:       131.8419 deg
Eccentricity:    0.0004279
Arg of perigee:   333.4482 deg
Mean anomaly:     026.6458 deg
Mean motion:   14.22059051 rev/day
Decay rate:        6.7e-07 rev/day^2
Epoch rev:           12934
Checksum:              311

Satellite: JUGNU
Catalog number: 37839
Epoch time:      12074.61933390
Element set:    0109
Inclination:      019.9616 deg
RA of node:       211.1157 deg
Eccentricity:    0.0019327
Arg of perigee:   261.2510 deg
Mean anomaly:     098.5712 deg
Mean motion:   14.12032473 rev/day
Decay rate:       6.20e-06 rev/day^2
Epoch rev:           02186
Checksum:              270

Satellite: SRMSAT
Catalog number: 37841
Epoch time:      12074.75761561
Element set:    0110
Inclination:      019.9725 deg
RA of node:       213.2993 deg
Eccentricity:    0.0012506
Arg of perigee:   230.8327 deg
Mean anomaly:     129.0993 deg
Mean motion:   14.10122720 rev/day
Decay rate:       2.64e-06 rev/day^2
Epoch rev:           02185
Checksum:              268

Satellite: RAX-2
Catalog number: 37853
Epoch time:      12074.98659191
Element set:    0132
Inclination:      101.7173 deg
RA of node:       072.3394 deg
Eccentricity:    0.0249943
Arg of perigee:   259.1836 deg
Mean anomaly:     098.1143 deg
Mean motion:   14.79167404 rev/day
Decay rate:      4.065e-05 rev/day^2
Epoch rev:           02047
Checksum:              315

Satellite: AUBIESAT
Catalog number: 37854
Epoch time:      12075.77515088
Element set:     125
Inclination:      101.7195 deg
RA of node:       073.6201 deg
Eccentricity:    0.0251165
Arg of perigee:   256.2954 deg
Mean anomaly:     101.0167 deg
Mean motion:   14.79498735 rev/day
Decay rate:      4.326e-05 rev/day^2
Epoch rev:            2057
Checksum:              297

Satellite: HRBE
Catalog number: 37855
Epoch time:      12074.96932450
Element set:    0132
Inclination:      101.7215 deg
RA of node:       072.4305 deg
Eccentricity:    0.0251341
Arg of perigee:   258.6597 deg
Mean anomaly:     098.6288 deg
Mean motion:   14.79383672 rev/day
Decay rate:      4.595e-05 rev/day^2
Epoch rev:           02045
Checksum:              315

Satellite: RS-39
Catalog number: 38051
Epoch time:      12075.92525311
Element set:     154
Inclination:      051.6447 deg
RA of node:       243.7325 deg
Eccentricity:    0.0011453
Arg of perigee:   062.3551 deg
Mean anomaly:     094.6901 deg
Mean motion:   15.22748450 rev/day
Decay rate:      8.291e-05 rev/day^2
Epoch rev:             775
Checksum:              286

/EX


More information about the Keps mailing list